Overview Statistics Trail Chart Weather Telemetry Raw packets
 

This is the latest recevied weather packets stored in our database for station/object K6CEG. If no packets are shown the sender has not sent any weather packets the latest 10 day(s).

<< 64 65 66 67 68 69 70 >>
Time Temp. Humidity Pressure Rain* Wind** Luminosity Snow
1788227438 26.67° C 39% 1014.2 hPa 0 mm - 13 W/m² -
1788227134 26.11° C 37% 1014.2 hPa 0 mm - 18 W/m² -
1788226844 26.67° C 37% 1014.3 hPa 0 mm - 23 W/m² -
1788226526 27.22° C 35% 1014.2 hPa 0 mm - 16 W/m² -
1788226221 27.22° C 35% 1014.2 hPa 0 mm - 18 W/m² -
1788225921 27.78° C 34% 1014.4 hPa 0 mm - 18 W/m² -
1788225616 27.78° C 33% 1014.2 hPa 0 mm - 20 W/m² -
1788225313 27.22° C 32% 1014.3 hPa 0 mm - 32 W/m² -
1788225010 27.78° C 33% 1014.2 hPa 0 mm - 41 W/m² -
1788224705 27.78° C 32% 1014.2 hPa 0 mm - 27 W/m² -
1788224404 27.78° C 34% 1014.1 hPa 0 mm - 26 W/m² -
1788224100 27.78° C 36% 1014.1 hPa 0 mm - 42 W/m² -
1788223794 27.78° C 37% 1014.1 hPa 0 mm - 23 W/m² -
1788223494 27.78° C 36% 1014.2 hPa 0 mm - 26 W/m² -
1788223189 27.78° C 35% 1014.2 hPa 0 mm - 26 W/m² -
1788222884 27.78° C 37% 1014.4 hPa 0 mm - 26 W/m² -
1788222583 28.33° C 37% 1014.3 hPa 0 mm - 26 W/m² -
1788222282 28.89° C 36% 1014.2 hPa 0 mm - 27 W/m² -
1788221977 28.89° C 35% 1014 hPa 0 mm - 193 W/m² -
1788221672 28.89° C 32% 1014.1 hPa 0 mm - 219 W/m² -
1788221367 29.44° C 34% 1014.4 hPa 0 mm - 275 W/m² -
1788221062 29.44° C 33% 1014.2 hPa 0 mm - 286 W/m² -
1788220761 30° C 32% 1014.2 hPa 0 mm - 31 W/m² -
1788220457 30.56° C 34% 1014.3 hPa 0 mm - 40 W/m² -
1788220158 30.56° C 33% 1014 hPa 0 mm - 124 W/m² -

* Rain latest hour (hover to see other rain measurements)
** Current wind speed in m/s (hover to see current wind gust speed)